DB0SVX Weather Reports


Display with metric or nautical units.
time (UTC)temp
F
wind
direction
speed
MPH
gust
MPH
rain 1hr
in
rain 24hr
in
rain mn
in
humidity
%
barometer
mb
20260506085521 68 112 0.0 0.0 0.00 0.06 0.00 35 1005.4
20260506084022 68 112 0.0 0.0 0.00 0.06 0.00 33 1005.0
20260506082521 62 247 0.0 0.0 0.00 0.06 0.00 34 1005.4
20260506081021 60 247 0.0 0.0 0.00 0.06 0.00 33 1005.4
20260506072521 59 247 0.0 0.0 0.00 0.06 0.00 26 1005.2
20260506071021 58 247 0.0 0.0 0.00 0.06 0.00 24 1005.5
20260506061021 53 247 0.0 0.0 0.00 0.06 0.00 1005.4
20260506051021 48 247 0.0 0.0 0.02 0.06 0.00 1005.9
20260506044021 46 247 0.0 0.0 0.02 0.06 0.00 1005.9
20260506042521 46 247 0.0 0.0 0.00 0.04 0.00 1006.0
20260506041021 46 247 0.0 0.0 0.00 0.04 0.00 1006.4
20260506035521 46 247 0.0 0.0 0.00 0.04 0.00 1006.2
20260506034021 45 247 0.0 0.0 0.00 0.04 0.00 1006.2
20260506032521 45 247 0.0 0.0 0.00 0.04 0.00 1006.5
20260506031021 45 247 0.0 0.0 0.00 0.04 0.00 1006.5
20260506025521 45 247 0.0 0.0 0.00 0.04 0.00 1006.7
20260506024021 46 247 0.0 0.0 0.00 0.04 0.00 1006.7
20260506022521 46 247 0.0 0.0 0.00 0.04 0.00 1006.9
20260506021021 46 247 0.0 0.0 0.00 0.04 0.00 1007.0
20260506015521 46 247 0.0 0.0 0.00 0.04 0.00 1007.0
20260506014021 46 247 0.0 0.0 0.00 0.04 0.00 1007.2
20260506012521 46 0 0.0 0.0 0.00 0.04 0.00 1007.0
20260506011021 46 0 0.0 0.0 0.00 0.04 0.00 1007.2
20260506005521 46 22 0.0 0.0 0.00 0.04 0.00 1007.4
20260506004021 47 225 0.0 0.0 0.00 0.04 0.00 1007.2
20260506002521 47 225 0.0 0.0 0.00 0.04 0.00 1007.5
20260506001021 47 270 0.0 0.0 0.00 0.04 0.00 1007.5
20260505235521 47 270 0.0 0.0 0.00 0.04 0.00 1007.7
20260505234021 47 270 0.0 0.0 0.00 0.04 0.00 1007.9
20260505232521 47 270 0.0 0.0 0.00 0.04 0.00 1007.7
20260505231021 48 270 0.0 0.0 0.00 0.04 0.00 1007.9
20260505225521 49 270 0.0 0.0 0.00 0.04 0.00 1008.0
20260505224021 49 270 0.0 0.0 0.00 0.04 0.00 1008.0
20260505222521 49 270 0.0 0.0 0.00 0.04 0.00 1008.2
20260505221021 49 270 1.0 0.0 0.00 0.04 0.00 1008.0
20260505215521 49 270 0.0 0.0 0.00 0.04 0.00 11 1007.9
20260505214021 49 270 0.0 0.0 0.00 0.04 0.00 12 1007.9
20260505212521 50 202 0.0 0.0 0.00 0.04 0.00 13 1008.0
20260505211021 50 202 0.0 0.0 0.00 0.04 0.00 14 1008.0
20260505205521 50 202 0.0 0.0 0.00 0.04 0.00 15 1008.0
20260505204021 51 337 2.0 0.0 0.02 0.04 0.00 19 1007.9
20260505202521 51 0 0.0 0.0 0.02 0.04 0.00 21 1008.2
20260505201021 51 337 0.0 0.0 0.04 0.04 0.00 24 1008.2
20260505195521 52 225 0.0 0.0 0.04 0.04 0.00 28 1008.0
20260505194022 53 202 18.0 0.0 0.02 0.02 0.00 30 1008.2
20260505192521 54 270 10.0 0.0 0.02 0.02 0.00 29 1007.9
20260505191022 55 22 16.0 0.0 0.00 0.00 0.00 32 1007.4
20260505185521 55 270 0.0 0.0 0.00 0.00 0.00 38 1007.2
20260505184021 56 270 0.0 0.0 0.00 0.00 0.00 41 1006.9
20260505182521 57 315 2.0 0.0 0.00 0.00 0.00 42 1006.5
20260505181021 57 270 0.0 0.0 0.00 0.00 0.00 45 1006.5
20260505175521 59 180 0.0 0.0 0.00 0.00 0.00 45 1006.5
20260505174021 60 135 0.0 0.0 0.00 0.00 0.00 45 1006.5
20260505172521 61 135 0.0 0.0 0.00 0.00 0.00 45 1006.2
20260505171021 61 135 0.0 0.0 0.00 0.00 0.00 45 1006.0
20260505165521 62 135 2.0 0.0 0.00 0.00 0.00 44 1005.7
20260505164021 61 135 0.0 0.0 0.00 0.00 0.00 44 1005.7
20260505162521 60 135 2.0 0.0 0.00 0.00 0.00 47 1005.7
20260505161021 62 180 0.0 0.0 0.00 0.00 0.00 45 1006.2
20260505152521 67 337 0.0 0.0 0.00 0.00 0.00 41 1006.2
20260505151021 68 90 0.0 0.0 0.00 0.00 0.00 40 1006.2
20260505124021 67 0 2.0 0.0 0.00 0.00 0.00 42 1006.7
20260505122521 67 45 0.0 0.0 0.00 0.00 0.00 42 1006.7
20260505121021 62 45 0.0 0.0 0.00 0.00 0.00 45 1007.0
20260505115521 62 45 2.0 0.0 0.00 0.00 0.00 46 1007.2
20260505114021 65 337 0.0 0.0 0.00 0.00 0.00 45 1007.2
20260505112521 69 0 2.0 0.0 0.00 0.00 0.00 42 1007.0
20260505111022 71 270 0.0 0.0 0.00 0.00 0.00 39 1006.7
20260505101021 72 315 2.0 0.0 0.00 0.00 0.00 38 1006.7
20260505095521 71 315 0.0 0.0 0.00 0.00 0.00 39 1006.9
20260505094021 72 315 0.0 0.0 0.00 0.00 0.00 37 1006.9
20260505092521 75 315 0.0 0.0 0.00 0.00 0.00 35 1007.0
20260505091021 79 315 0.0 0.0 0.00 0.00 0.00 34 1007.2